THORAD AGENA D DEB, 4757

Orbit data source: Space-Track

THORAD AGENA D DEB, 4757 is space debris in SSO originally from a launch on Wed, 08 Apr 1970 UTC launched from the Air Force Western Test Range (AFWTR). Debris objects in space refer to the collection of defunct objects orbiting the Earth. Examples of debris include non-operational satellites, rocket bodies, and fragments generated from explosions, collisions, or faulty payload assembly.

Loading next visibility...
Identifier
4757, 1970-025DF
Orbit
SSO
Country
Flag of USUS
Related business
Manufacturer
Unknown
Mission
Spacecraft
Bus & Motor
Unknown
Mass
Unknown
Launch date (UTC)
1970-04-08 (56 years ago)
Launch vehicle
Unknown
Launch site
Air Force Western Test Range (AFWTR)
Object type
Payload
Rocket body
Debris
Shape & HBR
Unknown shape, 0.1 m
Radar Cross Section
Small (<0.1 m²)

Expand to show TLE details & history
Last TLE update: 22 hours ago

TLE from 22 hours ago
0 THORAD AGENA D DEB
1 04757U 70025DF  25346.09624435  .00000600  00000-0  80763-3 0  9993
2 04757  99.4064 218.7885 0011980 205.0544 155.0019 13.63952919755269
Epoch: 2025-12-12T02:18Z
TLE epoch observation values (Epoch: 2025-12-12T02:18:35.511Z)
Latitude
-0.00004°
Longitude
103.09777°
Altitude
1,032.213 km
Speed
7.332 km/s
True Right ascension
14h 35m 09s
True Declination
0° 00' 00"
Sunlit
Object was in daylight at epoch
Visualization orbit readout
Latitude
Unknown
Longitude
Unknown
Altitude
Unknown
Speed
Unknown
Apparent Right ascension
Unknown
Apparent Declination
Unknown
Sunlit
N/A
Visualization observer readout
Local Sidereal Time
22:20:36
Azimuth
Unknown
Elevation
Unknown
Doppler factor
Unknown
Orbital elements
Apogee altitude
1,027.49 km
Perigee altitude
1,009.767 km
Semi-major axis
7,396.766 km
Eccentricity
0.0012
Inclination
99.4064°
RAAN
218.7885°
Arg. of periapsis
205.0544°
True anomaly
155.05983°
Mean anomaly
155.0019°
Eccentric anomaly
155.03088°
Mean motion
3.41177 °/min
Orbital period
105.52 mins
BSTAR
0.00080763
Loading maneuver chart data...
Computing Atmospheric mass density...

Documentation

Showing up to 5 results
|